Regional Weather Roundup
Issued by NWS

Home | Current Version | Previous Version | Text Only | Print | Product List | Glossary Off
Versions: 1 2 3 4 5 6 7 8 9 10 11 12 13 14 15 16 17 18 19 20 21 22 23 24 25 26 27

000
ASUS45 KTFX 271910
RWRMT
MONTANA REGIONAL WEATHER ROUNDUP
NATIONAL WEATHER SERVICE GREAT FALLS MT
100 PM MDT WED JUL 27 2016

NOTE: "FAIR" INDICATES FEW OR NO CLOUDS BELOW 12000 FEET WITH NO
SIGNIFICANT WEATHER AND/OR OBSTRUCTIONS TO VISIBILITY.

MTZ001>007-043-272000-
WEST OF THE DIVIDE

CITY           SKY/WX    TMP DP  RH WIND       PRES   REMARKS
KALISPELL      SUNNY     82  50  32 VRB7      30.12F
MISSOULA       SUNNY     84  51  31 CALM      30.11F
BUTTE          SUNNY     79  37  22 CALM      30.23F
MULLAN PASS    CLOUDY    69  46  43 CALM      30.29S
ANACONDA         N/A     77  46  33 N9        30.20F
DEER LODGE       N/A     79  48  34 CALM      30.22F
EUREKA           N/A     81  52  36 CALM      30.13F
HAMILTON         N/A     79  54  41 CALM      30.13F
LIBBY            N/A     84  52  32 W6        30.09F
PLAINS           N/A     88  50  27 CALM      30.07F
RONAN            N/A     81  53  37 N7        30.17S
$$

MTZ008-052>055-272000-
SOUTHWEST MONTANA

CITY           SKY/WX    TMP DP  RH WIND       PRES   REMARKS
BOZEMAN        SUNNY     80  47  31 VRB5      30.18F
DILLON         SUNNY     78  41  26 CALM      30.19F
W YELLOWSTONE  MOSUNNY   81  32  17 W10G23    30.30F
ENNIS          SUNNY     82  37  20 CALM      30.24F
THREE FORKS      N/A     81 -13   2 CALM      30.15F
TWIN BRIDGES     N/A     80  43  27 W6        30.15F
$$

MTZ009-010-012-014-046-048-049-054-272000-
EAST SLOPES AND CENTRAL MONTANA

CITY           SKY/WX    TMP DP  RH WIND       PRES   REMARKS
CUT BANK       MOSUNNY   76  51  41 VRB5      30.20F
GREAT FALLS    SUNNY     80  51  36 VRB6      30.18F
MALMSTROM AFB  SUNNY     77  51  38 NW7       30.18F
HELENA         MOSUNNY   81  51  35 VRB6      30.16F
CHOTEAU          N/A     77  50  38 VRB7      30.22S
CONRAD           N/A     77  58  51 N6        30.21S
$$

MTZ011-013-016-021-045-047-050-051-272000-
NORTH CENTRAL MONTANA

CITY           SKY/WX    TMP DP  RH WIND       PRES   REMARKS
HAVRE          CLOUDY    71  59  65 CALM      30.16S
LEWISTOWN      SUNNY     73  57  57 CALM      30.20F
N BAR RANCH      N/A     77  52  41 NW15      30.22S
$$

MTZ017>020-022>027-061-062-272000-
NORTHEAST MONTANA

CITY           SKY/WX    TMP DP  RH WIND       PRES   REMARKS
GLASGOW        CLOUDY    73  61  65 VRB5      30.14S
JORDAN           N/A     73  61  65 VRB5      30.14S
SIDNEY         CLOUDY    71  59  65 N7        30.15R
WOLF POINT     CLOUDY    69  63  81 E9        30.16S
PLENTYWOOD       N/A     66  57  72 CALM      30.18S
SCOBEY           N/A     68  53  58 NE8       30.16R
$$

MTZ028>42-056>058-272000-
SOUTHCENTRAL AND SOUTHEAST MONTANA

CITY           SKY/WX    TMP DP  RH WIND       PRES   REMARKS
BAKER          CLOUDY    66  65  96 E8        30.14F
BILLINGS       MOSUNNY   81  51  35 NE10      30.14F
LIVINGSTON     SUNNY     85  39  19 VRB3      30.16F
MILES CITY     SUNNY     78  60  53 CALM      30.11F
EKALAKA          N/A     66  59  78 SE8       30.11F
FORSYTH          N/A     81  61  50 NW6       30.11S
LAUREL           N/A     82  53  36 NE5       30.12F
ROUNDUP          N/A     79  53  40 N2        30.06S
$$

REGIONAL REPORTS...DAKOTAS

CITY           SKY/WX    TMP DP  RH WIND       PRES   REMARKS
WILLISTON      CLOUDY    74  59  59 W6        30.14S
MINOT          SUNNY     79  58  48 NE8       30.14R
DICKINSON      CLOUDY    70  61  73 E3        30.14F
BEACH            N/A     70  64  83 S6        30.17F
CROSBY         PTSUNNY   72  63  73 NE3       30.18S
WATFORD CITY     N/A    N/A N/A N/A MISG        N/A
BISMARCK       CLOUDY    75  63  66 NE10      30.12S
GRAND FORKS    MOSUNNY   76  59  55 N13       30.06F
FARGO          SUNNY     79  59  50 NW18      30.04S
BUFFALO SD       N/A     62  58  86 N5        30.10F
RAPID CITY     PTSUNNY   80  62  54 NE16      30.14R
$$

REGIONAL REPORTS...WYOMING/IDAHO/WASHINGTON

CITY           SKY/WX    TMP DP  RH WIND       PRES   REMARKS
GILLETTE       SUNNY     82  54  37 NE14      30.16S
SHERIDAN       SUNNY     86  52  30 N8        30.14F
BUFFALO WY     SUNNY     82  52  35 VRB6      30.20F
CODY           SUNNY     81  48  32 N10       30.20F
YELLOWSTONE LA   N/A     70  44  39 MISG      30.41F
IDAHO FALLS    SUNNY     86  39  19 CALM      30.18F
SALMON         SUNNY     79  46  31 NW5       30.10F
BOISE          SUNNY     91  47  21 W8        30.04F
SPOKANE        MOSUNNY   83  51  33 NE7       30.08F
$$

REGIONAL REPORTS...ALBERTA

CITY           SKY/WX    TMP DP  RH WIND       PRES   REMARKS
EDMONTON       MOSUNNY   79  55  44 N7        30.12F
CALGARY          N/A     73  54  49 VRB6      30.21S
LETHBRIDGE     MOSUNNY   73  55  53 E5        30.18S
MEDICINE HAT   PTSUNNY   77  59  53 E3        30.16S
WATERTON GATE    N/A     75  54  46 N3          N/A
CARDSTON         N/A     73  57  56 NW2         N/A
MILK RIVER       N/A     75  55  50 W1          N/A
ONEFOUR          N/A     70  55  60 E5          N/A
$$

REGIONAL REPORTS...SASKATCHEWAN

CITY           SKY/WX    TMP DP  RH WIND       PRES   REMARKS
SWIFT CURRENT  PTSUNNY   73  55  53 E10       30.18R
REGINA         PTSUNNY   75  57  53 S5        30.16S
SASKATOON      MOSUNNY   77  52  41 VRB2      30.19S
CYPRESS HILLS    N/A     68  57  68 NE5         N/A
VAL MARIE        N/A     70  59  68 NE9         N/A
ROCKGLEN         N/A     66  59  77 E6          N/A
$$




USA.gov is the U.S. government's official web portal to all federal, state and local government web resources and services.